Lapse_Rate
4.4 4.3 4.3 4.2 4.3 4.3 4.4 4.4 4.9 5.4 5.4 6.0 5.8 6.0 6.4 6.6 6.8 6.8 6.9 7.0 7.0 6.8
4.9 5.1 5.2 5.1 4.8 4.7 5.0 4.5 4.7 5.3 5.9 6.1 5.4 6.0 6.3 6.5 6.8 7.0 6.9 6.9 6.9 6.9
4.6 5.2 5.3 5.4 6.0 6.1 5.9 5.6 5.6 6.1 6.3 6.4 6.0 5.8 6.2 6.6 7.0 7.2 7.2 7.0 7.0 6.9
5.3 5.4 5.7 5.7 5.4 5.7 6.1 6.3 6.3 6.9 7.0 6.6 6.6 6.2 6.4 6.9 7.2 7.4 7.5 7.4 7.2 7.2
6.2 6.4 6.3 6.2 6.0 5.6 5.5 5.5 6.9 6.6 6.6 6.4 7.2 7.0 7.0 7.4 7.6 7.7 7.8 7.7 7.6 7.5
6.8 6.8 6.8 6.9 6.7 6.3 5.5 5.2 5.8 6.6 6.8 6.3 7.0 7.1 7.2 7.6 7.9 8.1 8.2 8.0 7.8 7.7
6.5 6.5 6.5 6.6 6.8 6.8 6.1 5.4 5.2 5.1 5.8 5.8 6.1 7.4 7.5 7.9 7.9 8.0 7.9 8.0 8.1 8.1
6.1 6.0 6.1 6.3 6.6 6.8 6.6 5.8 5.1 5.1 5.6 6.7 6.6 7.1 7.3 7.6 7.8 7.9 7.9 7.8 8.1 8.1
6.6 6.6 6.5 6.5 6.7 7.0 6.8 6.4 5.6 5.1 5.6 6.3 6.6 7.4 7.5 7.6 7.6 7.7 8.1 8.1 8.2 8.2
6.6 6.5 6.5 6.7 7.1 7.3 6.9 6.7 6.4 6.3 6.6 6.9 6.7 6.8 7.1 7.6 7.9 8.0 8.2 8.2 7.9 7.9
6.4 6.5 6.6 7.0 7.3 7.4 7.1 6.9 7.2 7.2 7.2 7.3 7.4 7.0 7.2 7.1 7.7 8.2 8.1 8.2 7.9 7.8
6.3 6.7 7.1 7.5 7.5 7.1 6.8 6.7 7.0 7.3 7.1 7.2 6.8 6.4 6.4 7.2 7.6 7.8 7.8 7.8 7.8 7.7
6.5 7.2 7.6 7.4 7.1 6.9 6.9 6.8 6.6 6.9 6.8 6.7 6.6 7.1 7.3 7.4 7.5 7.7 7.7 7.8 7.5 7.4
7.2 7.3 7.2 7.0 6.8 6.7 6.8 6.6 6.7 6.5 6.1 7.1 7.8 7.4 7.3 7.2 7.4 7.3 7.1 7.2 7.1 6.9
Wind_Speed
11 8 9 11 10 9 9 11 15 13 17 21 9 10 10 7 7 8 7 8 6 4
13 12 11 14 12 10 11 11 14 14 15 23 14 11 10 8 10 9 9 9 8 6
13 14 14 13 14 15 13 13 15 16 16 17 19 12 11 10 10 10 8 7 10 8
12 13 13 14 15 14 15 16 15 16 17 16 24 10 10 11 10 12 11 9 10 11
13 13 14 14 15 15 16 16 15 14 17 16 24 11 10 10 9 11 12 11 11 10
15 14 15 15 15 15 16 16 16 14 15 16 21 12 12 11 10 11 12 12 12 11
16 16 16 16 16 16 15 15 16 15 15 18 18 13 9 9 11 14 15 13 13 12
17 17 17 17 16 15 16 14 15 15 16 19 13 12 9 11 13 13 14 10 12 12
19 18 17 17 17 15 16 15 15 15 14 18 11 20 16 15 11 11 11 12 12 11
19 19 18 18 17 16 15 16 16 16 14 18 15 22 20 20 12 10 11 12 9 9
19 19 18 18 18 17 14 15 15 15 16 17 12 22 18 21 14 12 12 11 11 11
18 19 18 18 18 16 15 15 14 13 17 16 13 19 18 18 11 9 9 8 8 9
19 19 19 18 18 16 14 16 12 15 16 20 14 19 18 17 7 7 6 6 8 14
19 18 18 18 15 15 15 14 14 15 15 12 12 13 20 19 7 6 5 5 6 7
Wind_Direction
320 315 313 313 313 306 299 299 301 307 308 293 237 220 215 206 200 193 196 197 195 197
315 307 303 304 302 295 296 294 296 294 297 306 254 226 216 211 207 203 197 204 199 197
305 302 302 297 295 295 295 290 291 303 304 305 271 236 219 219 213 208 207 201 196 198
296 295 291 291 291 290 291 295 293 298 296 291 288 230 224 224 215 214 216 207 206 208
293 293 289 285 287 289 289 290 292 287 288 287 295 236 229 228 219 220 223 216 207 216
294 292 288 285 283 284 281 286 291 280 285 281 288 251 222 218 234 236 228 223 218 214
292 291 288 285 282 282 280 281 283 281 281 275 272 273 253 238 231 238 233 223 220 217
292 289 288 286 284 281 280 280 283 284 280 278 277 269 257 249 233 231 239 226 224 222
290 289 288 286 284 281 281 282 278 273 279 275 266 269 259 264 252 230 229 233 229 225
289 288 287 286 284 280 280 283 280 278 276 270 262 262 257 261 249 241 235 232 230 221
288 286 285 283 282 280 277 275 274 279 278 266 270 267 264 267 249 238 233 225 213 216
287 285 282 280 280 278 278 274 272 273 271 267 266 266 261 268 240 222 205 204 209 212
285 280 277 275 275 273 272 271 275 272 265 260 258 259 265 260 211 200 202 210 223 226
284 278 274 271 268 268 268 267 267 266 264 273 271 269 254 222 195 201 209 222 237 242